{"data":{"norad_id":59233,"epoch":"2026-09-20T22:01:28.942176Z","epoch_age_seconds":122702,"freshness":"FRESH","line1":"1 59233U 24049C   26263.91769609 -.00000149  00000+0  40890-5 0  9997","line2":"2 59233  43.0037 120.9958 0000900 271.7301  88.3448 15.27576426142259","mean_motion":15.27576426,"eccentricity":9.0e-5,"inclination_deg":43.0037,"raan_deg":120.9958,"arg_perigee_deg":271.7301,"mean_anomaly_deg":88.3448,"bstar":4.089e-6,"rev_number":14225,"period_min":94.266969265209,"perigee_km":482.44229019045,"apogee_km":483.67730561407,"semimajor_km":6861.1967979023,"source":"CELESTRAK","updated_at":"2026-09-21T09:00:34.074226Z"}}